DW7901 Weather Reports


time (UTC)temp
C
wind
direction
speed
KPH
gust
KPH
rain 1hr
cm
rain 24hr
cm
rain mn
cm
humidity
%
barometer
mb
20260903162005 24 161 3.2 4.8 0.00 0.51 0.51 40 1019.3
20260903161005 25 220 3.2 9.7 0.00 0.51 0.51 35 1019.3
20260903160005 26 217 3.2 12.9 0.00 0.51 0.51 32 1019.5
20260903155004 26 239 3.2 8.0 0.00 0.51 0.51 33 1019.6
20260903154004 26 328 0.0 12.9 0.00 0.51 0.51 33 1019.5
20260903152004 27 261 3.2 17.7 0.00 0.51 0.51 30 1019.6
20260903150005 27 258 1.6 17.7 0.00 0.51 0.51 30 1020.0
20260903145005 28 203 6.4 9.7 0.00 0.51 0.51 30 1019.8
20260903144005 28 249 3.2 11.3 0.00 0.51 0.51 32 1020.0
20260903143004 28 236 3.2 12.9 0.00 0.51 0.51 31 1019.8
20260903142004 28 276 3.2 9.7 0.00 0.51 0.51 32 1019.8
20260903141004 28 1 3.2 8.0 0.00 0.51 0.51 32 1020.0
20260903140005 28 259 3.2 9.7 0.00 0.51 0.51 32 1020.1
20260903135005 27 235 3.2 14.5 0.00 0.51 0.51 31 1020.1
20260903134005 26 283 3.2 12.9 0.00 0.51 0.51 32 1020.2
20260903133005 26 194 1.6 6.4 0.00 0.51 0.51 37 1020.3
20260903132005 26 314 1.6 14.5 0.00 0.51 0.51 35 1020.6
20260903131004 26 259 6.4 20.9 0.00 0.53 0.51 35 1020.6
20260903130005 26 310 1.6 19.3 0.00 0.53 0.51 34 1020.6
20260903125004 27 323 12.9 17.7 0.00 0.53 0.51 33 1020.8
20260903123006 26 245 3.2 12.9 0.00 0.56 0.51 40 1020.8
20260903122005 26 307 3.2 17.7 0.00 0.56 0.51 42 1020.9
20260903121004 25 186 3.2 12.9 0.00 0.56 0.51 42 1020.8
20260903120005 25 239 3.2 19.3 0.00 0.56 0.51 44 1020.9
20260903115004 25 243 3.2 14.5 0.00 0.56 0.51 46 1021.2
20260903114004 25 264 1.6 14.5 0.00 0.56 0.51 45 1021.2
20260903113004 25 269 3.2 14.5 0.00 0.56 0.51 43 1021.4
20260903111004 24 230 3.2 12.9 0.00 0.56 0.51 50 1021.7
20260903105005 23 202 3.2 12.9 0.00 0.56 0.51 52 1021.9
20260903104005 23 210 3.2 12.9 0.00 0.56 0.51 55 1021.9
20260903103004 23 194 9.7 12.9 0.03 0.56 0.51 56 1021.9
20260903102005 22 209 3.2 14.5 0.03 0.56 0.51 56 1022.0
20260903101004 22 184 9.7 17.7 0.03 0.56 0.51 57 1022.0
20260903100004 22 223 6.4 12.9 0.03 0.56 0.51 60 1022.3
20260903094005 21 200 3.2 12.9 0.03 0.56 0.51 71 1022.2
20260903093004 21 218 1.6 12.9 0.00 0.53 0.48 80 1022.6
20260903092005 20 206 0.0 6.4 0.00 0.53 0.48 90 1022.5
20260903091005 20 181 0.0 6.4 0.00 0.53 0.48 92 1022.6
20260903090004 19 184 3.2 6.4 0.00 0.53 0.48 94 1022.5
20260903085004 20 181 4.8 6.4 0.00 0.53 0.48 94 1022.5
20260903084004 19 165 0.0 6.4 0.00 0.53 0.48 96 1022.6
20260903083004 18 184 3.2 6.4 0.00 0.53 0.48 96 1022.6
20260903082005 18 175 4.8 6.4 0.00 0.53 0.48 97 1022.5
20260903081005 17 213 3.2 6.4 0.00 0.53 0.48 96 1022.7
20260903080005 17 185 0.0 6.4 0.00 0.53 0.48 95 1022.5
20260903075004 16 154 3.2 8.0 0.00 0.53 0.48 96 1022.5
20260903074004 16 146 4.8 6.4 0.00 0.53 0.48 96 1022.5
20260903073004 16 156 0.0 6.4 0.00 0.53 0.48 96 1022.5
20260903071004 15 128 1.6 11.3 0.13 0.53 0.48 97 1022.7
20260903070004 15 130 4.8 12.9 0.13 0.53 0.48 97 1022.5
20260903065004 14 90 4.8 6.4 0.13 0.53 0.48 97 1022.6
20260902220005 13 181 0.0 4.8 0.00 0.05 0.00 94 1022.5
20260902215003 14 144 3.2 4.8 0.00 0.05 0.05 94 1022.6
20260902214004 14 131 3.2 6.4 0.00 0.05 0.05 94 1022.8
20260902213004 14 135 3.2 6.4 0.00 0.05 0.05 94 1022.6
20260902212007 14 53 3.2 4.8 0.00 0.05 0.05 94 1022.5
20260902211003 14 0 0.0 0.0 0.00 0.05 0.05 94 1022.5
20260902210004 15 0 0.0 0.0 0.00 0.05 0.05 94 1022.7
20260902205005 15 1 0.0 3.2 0.00 0.05 0.05 93 1022.4
20260902204003 15 1 1.6 6.4 0.00 0.05 0.05 93 1022.6
20260902203003 15 1 1.6 4.8 0.00 0.05 0.05 93 1022.6
20260902202006 15 0 0.0 0.0 0.00 0.05 0.05 93 1022.6
20260902201003 15 0 0.0 0.0 0.00 0.05 0.05 92 1022.5
20260902200004 15 270 0.0 3.2 0.00 0.05 0.05 92 1022.5
20260902195004 15 270 0.0 1.6 0.00 0.05 0.05 92 1022.4
20260902194003 15 270 0.0 3.2 0.00 0.05 0.05 92 1022.7
20260902193004 15 0 0.0 0.0 0.00 0.05 0.05 91 1022.7
20260902192004 16 0 0.0 0.0 0.00 0.05 0.05 90 1022.7
20260902185003 16 0 0.0 0.0 0.00 0.05 0.05 89 1022.7
20260902184005 16 270 0.0 1.6 0.00 0.05 0.05 89 1022.6
20260902183005 16 0 0.0 0.0 0.00 0.05 0.05 88 1022.6
20260902182006 16 0 0.0 0.0 0.00 0.05 0.05 87 1022.6
20260902181003 17 270 0.0 3.2 0.00 0.05 0.05 85 1022.3
20260902180006 17 270 1.6 3.2 0.00 0.05 0.05 84 1022.3
20260902175005 17 270 0.0 3.2 0.00 0.05 0.05 83 1022.3
20260902173003 18 246 3.2 4.8 0.00 0.05 0.05 82 1022.2
20260902172004 18 182 3.2 4.8 0.00 0.05 0.05 80 1022.0
20260902171004 19 135 0.0 3.2 0.00 0.05 0.05 77 1022.0
20260902170004 19 151 1.6 3.2 0.00 0.05 0.05 75 1021.8
20260902165003 20 96 3.2 3.2 0.00 0.05 0.05 73 1022.0
20260902164005 20 90 0.0 3.2 0.00 0.05 0.05 71 1021.9
20260902163003 21 102 0.0 3.2 0.00 0.05 0.05 68 1022.2